{"data":{"norad_id":24876,"intl_designator":"1997-035A","name":"NAVSTAR 43 (USA 132)","alt_names":[],"object_type":"PAYLOAD","status":"ACTIVE","operator":null,"country":"US","launch_date":"1997-07-23","launch_site_code":"AFETR","launch_vehicle":null,"mission":null,"orbit_class":"UNKNOWN","rcs_meters":3.1622,"size_class":null,"mass_kg":null,"dimensions":null,"purposes":[],"wikipedia_slug":null,"has_3d_model":false,"image_url":null,"decayed_at":null,"tle_current":{"epoch":"2026-09-19T10:23:58.860960Z","epoch_age_seconds":103627,"freshness":"FRESH","line1":"1 24876U 97035A   26262.43332015  .00000018  00000+0  00000+0 0  9997","line2":"2 24876  56.0492  94.8895 0106019  58.9668 302.1365  2.00564524213843","mean_motion":2.00564524,"eccentricity":0.0106019,"inclination_deg":56.0492,"raan_deg":94.8895,"arg_perigee_deg":58.9668,"mean_anomaly_deg":302.1365,"bstar":0,"rev_number":21384,"period_min":717.97343382621,"perigee_km":19900.540304598,"apogee_km":20463.718885425,"semimajor_km":26560.266595012,"source":"CELESTRAK","updated_at":"2026-09-20T09:00:13.523610Z"}}}